075  
NZUS99 KSGF 162257  
HRRSGF  
 
HOURLY WEATHER  
NATIONAL WEATHER SERVICE SPRINGFIELD MO  
600 PM CDT MON SEP 16 2019  
   
.....SGF CWA...
 
 
 
CITY SKY/WX TMP DP RH WIND PRES REMARKS  
SPRINGFIELD PTSUNNY 90 67 46 SW5 30.05R HX 93  
JOPLIN SUNNY 89 72 56 CALM 30.04S HX 96  
ROLLA SUNNY 89 67 47 SE3 30.07S HX 92  
BRANSON PTSUNNY 91 61 35 SE9 30.07S HX 91  
   
.....SURROUNDING SGF CWA...
 
 
 
CITY SKY/WX TMP DP RH WIND PRES REMARKS  
CHANUTE SUNNY 91 71 51 SE10 30.02F HX 97  
PARSONS SUNNY 89 74 60 S3 30.02F HX 98  
COFFEYVILLE SUNNY 88 72 58 S6 30.00F HX 94  
HARRISON AR SUNNY 89 58 34 SE8 30.07S  
   
.....KANSAS AND MISSOURI...
 
 
 
CITY SKY/WX TMP DP RH WIND PRES REMARKS  
KANSAS CTY INT PTSUNNY 85 76 74 S3 30.02F HX 94  
SEDALIA SUNNY 86 71 60 SE3 30.04F HX 91  
ST JOSEPH SUNNY 85 72 65 S6 30.00F HX 91  
ST LOUIS MOSUNNY 91 69 48 NW6 30.03S HX 96  
WICHITA PTSUNNY 89 67 47 S17 29.98F HX 92  
TOPEKA SUNNY 89 69 51 S9 29.99F HX 93  
OLATHE SUNNY 87 71 58 S5 30.03S HX 93  
   
.....TENNESSEE...
 
 
 
CITY SKY/WX TMP DP RH WIND PRES REMARKS  
MEMPHIS NOT AVBL  
NASHVILLE FAIR 95 57 27 N7 30.02S HX 94  
   
.....ARKANSAS....
 
 
 
CITY SKY/WX TMP DP RH WIND PRES REMARKS  
FAYETTEVILLE MOSUNNY 88 73 61 CALM 30.05F HX 95  
FT SMITH SUNNY 94 69 44 E8 29.98F HX 99  
LITTLE ROCK MOSUNNY 92 65 40 E8 30.00F HX 94  
   
.....OKLAHOMA....
 
 
 
CITY SKY/WX TMP DP RH WIND PRES REMARKS  
TULSA PTSUNNY 90 72 55 E8 29.99S HX 97  
PONCA CITY SUNNY 89 68 49 S12 29.99S HX 93  
MCALESTER MOSUNNY 95 61 32 SE8 29.98F HX 95  
OKLAHOMA CITY MOSUNNY 89 69 51 S9 30.00F HX 93  
   
.....IOWA.........
 
 
 
CITY SKY/WX TMP DP RH WIND PRES REMARKS  
DES MOINES NOT AVBL  
QUAD CITIES FAIR 79 66 64 SE7 30.07S  
   
.....ILLINOIS.....
 
 
 
CITY SKY/WX TMP DP RH WIND PRES REMARKS  
QUINCY NOT AVBL  
CHICAGO FAIR 72 62 71 NE9 30.11S  
 
 
 
CLICK HERE TO GO TO PREVIOUS BULLETINS.

The Nexlab MO Page
The Nexlab KS Page Main Text Page